Time,TemperatureF,DewpointF,PressureIn,WindDirection,WindDirectionDegrees,WindSpeedMPH,WindSpeedGustMPH,Humidity,HourlyPrecipIn,Conditions,Clouds,dailyrainin,SoftwareType,DateUTC
2013-03-25 00:01:00,50.7,-1.0,29.89,NW,305,5.0,5.0,12,0.00,,,0.00,weatherlink.com 1.10,2013-03-25 06:01:00,
2013-03-25 00:31:00,50.5,-1.0,29.91,NW,314,4.0,8.0,12,0.00,,,0.00,weatherlink.com 1.10,2013-03-25 06:31:00,
2013-03-25 00:46:00,50.5,-3.0,29.91,West,278,4.0,8.0,11,0.00,,,0.00,weatherlink.com 1.10,2013-03-25 06:46:00,
2013-03-25 01:01:00,50.5,-1.0,29.92,NW,308,4.0,8.0,12,0.00,,,0.00,weatherlink.com 1.10,2013-03-25 07:01:00,
2013-03-25 01:16:00,49.6,-1.0,29.92,NNW,338,3.0,6.0,12,0.00,,,0.00,weatherlink.com 1.10,2013-03-25 07:16:00,
2013-03-25 01:31:00,49.1,0.0,29.92,NW,316,1.0,7.0,13,0.00,,,0.00,weatherlink.com 1.10,2013-03-25 07:31:00,
2013-03-25 01:46:00,48.8,0.0,29.93,NW,319,2.0,4.0,13,0.00,,,0.00,weatherlink.com 1.10,2013-03-25 07:46:00,
2013-03-25 02:01:00,47.1,0.0,29.93,ENE,67,3.0,7.0,14,0.00,,,0.00,weatherlink.com 1.10,2013-03-25 08:01:00,
2013-03-25 02:17:00,45.9,2.0,29.94,North,1,7.0,9.0,16,0.00,,,0.00,weatherlink.com 1.10,2013-03-25 08:17:00,
2013-03-25 02:32:00,45.9,0.0,29.95,NNW,328,3.0,7.0,15,0.00,,,0.00,weatherlink.com 1.10,2013-03-25 08:32:00,
2013-03-25 02:47:00,45.6,2.0,29.95,NNE,16,3.0,6.0,16,0.00,,,0.00,weatherlink.com 1.10,2013-03-25 08:47:00,
2013-03-25 03:02:00,45.0,1.0,29.95,NNW,342,4.0,5.0,16,0.00,,,0.00,weatherlink.com 1.10,2013-03-25 09:02:00,
2013-03-25 03:17:00,44.2,2.0,29.96,NW,321,0.0,4.0,17,0.00,,,0.00,weatherlink.com 1.10,2013-03-25 09:17:00,
2013-03-25 03:32:00,43.1,2.0,29.97,NNW,330,2.0,7.0,18,0.00,,,0.00,weatherlink.com 1.10,2013-03-25 09:32:00,
2013-03-25 03:47:00,42.3,4.0,29.98,WNW,284,4.0,8.0,20,0.00,,,0.00,weatherlink.com 1.10,2013-03-25 09:47:00,
2013-03-25 04:02:00,42.0,5.0,29.98,NNW,342,1.0,6.0,21,0.00,,,0.00,weatherlink.com 1.10,2013-03-25 10:02:00,
2013-03-25 04:17:00,42.1,5.0,29.98,WNW,283,1.0,3.0,21,0.00,,,0.00,weatherlink.com 1.10,2013-03-25 10:17:00,
2013-03-25 04:32:00,42.3,5.0,29.99,North,9,3.0,6.0,21,0.00,,,0.00,weatherlink.com 1.10,2013-03-25 10:32:00,
2013-03-25 04:47:00,42.3,5.0,30.00,NNW,328,1.0,6.0,21,0.00,,,0.00,weatherlink.com 1.10,2013-03-25 10:47:00,
2013-03-25 05:02:00,41.9,4.0,30.01,NNW,342,0.0,4.0,21,0.00,,,0.00,weatherlink.com 1.10,2013-03-25 11:02:00,
2013-03-25 05:17:00,40.8,5.0,30.02,West,276,0.0,1.0,22,0.00,,,0.00,weatherlink.com 1.10,2013-03-25 11:17:00,
2013-03-25 05:32:00,40.7,4.0,30.02,West,278,0.0,1.0,22,0.00,,,0.00,weatherlink.com 1.10,2013-03-25 11:32:00,
2013-03-25 05:48:00,40.6,5.0,30.02,ESE,106,0.0,2.0,23,0.00,,,0.00,weatherlink.com 1.10,2013-03-25 11:48:00,
2013-03-25 06:03:00,40.9,6.0,30.03,ESE,106,2.0,4.0,23,0.00,,,0.00,weatherlink.com 1.10,2013-03-25 12:03:00,
2013-03-25 06:18:00,41.8,5.0,30.04,ESE,103,1.0,4.0,22,0.00,,,0.00,weatherlink.com 1.10,2013-03-25 12:18:00,
2013-03-25 06:33:00,41.0,5.0,30.04,SE,143,1.0,2.0,22,0.00,,,0.00,weatherlink.com 1.10,2013-03-25 12:33:00,
2013-03-25 06:48:00,40.1,6.0,30.05,SSE,148,0.0,2.0,24,0.00,,,0.00,weatherlink.com 1.10,2013-03-25 12:48:00,
2013-03-25 07:03:00,39.6,5.0,30.07,SSW,207,0.0,3.0,24,0.00,,,0.00,weatherlink.com 1.10,2013-03-25 13:03:00,
2013-03-25 07:18:00,38.5,5.0,30.07,WNW,291,1.0,3.0,25,0.00,,,0.00,weatherlink.com 1.10,2013-03-25 13:18:00,
2013-03-25 07:33:00,38.7,6.0,30.09,WNW,300,2.0,6.0,26,0.00,,,0.00,weatherlink.com 1.10,2013-03-25 13:33:00,
2013-03-25 07:48:00,40.0,6.0,30.11,NNW,346,2.0,7.0,24,0.00,,,0.00,weatherlink.com 1.10,2013-03-25 13:48:00,
2013-03-25 08:04:00,40.1,5.0,30.11,NNW,336,1.0,7.0,23,0.00,,,0.00,weatherlink.com 1.10,2013-03-25 14:04:00,
2013-03-25 08:18:00,40.2,5.0,30.13,NNW,340,2.0,5.0,23,0.00,,,0.00,weatherlink.com 1.10,2013-03-25 14:18:00,
2013-03-25 08:34:00,41.2,6.0,30.13,West,273,3.0,4.0,23,0.00,,,0.00,weatherlink.com 1.10,2013-03-25 14:34:00,
2013-03-25 08:48:00,41.7,5.0,30.14,WSW,242,2.0,4.0,22,0.00,,,0.00,weatherlink.com 1.10,2013-03-25 14:48:00,
2013-03-25 09:04:00,43.1,5.0,30.14,NE,44,3.0,5.0,21,0.00,,,0.00,weatherlink.com 1.10,2013-03-25 15:04:00,
2013-03-25 09:18:00,43.6,5.0,30.14,North,1,1.0,5.0,20,0.00,,,0.00,weatherlink.com 1.10,2013-03-25 15:18:00,
2013-03-25 09:34:00,43.8,5.0,30.15,NNE,13,1.0,5.0,20,0.00,,,0.00,weatherlink.com 1.10,2013-03-25 15:34:00,
2013-03-25 09:50:00,45.7,5.0,30.15,North,357,7.0,8.0,19,0.00,,,0.00,weatherlink.com 1.10,2013-03-25 15:50:00,
2013-03-25 10:03:00,46.3,6.0,30.15,ENE,63,3.0,7.0,19,0.00,,,0.00,weatherlink.com 1.10,2013-03-25 16:03:00,
2013-03-25 10:19:00,47.2,7.0,30.15,ESE,122,1.0,4.0,19,0.00,,,0.00,weatherlink.com 1.10,2013-03-25 16:19:00,
2013-03-25 10:34:00,47.6,6.0,30.15,SSW,207,2.0,6.0,18,0.00,,,0.00,weatherlink.com 1.10,2013-03-25 16:34:00,
2013-03-25 10:50:00,48.0,6.0,30.15,NE,40,2.0,8.0,18,0.00,,,0.00,weatherlink.com 1.10,2013-03-25 16:50:00,
2013-03-25 11:04:00,48.4,8.0,30.14,NE,55,6.0,9.0,19,0.00,,,0.00,weatherlink.com 1.10,2013-03-25 17:04:00,
2013-03-25 11:20:00,49.2,8.0,30.14,ENE,67,7.0,8.0,19,0.00,,,0.00,weatherlink.com 1.10,2013-03-25 17:20:00,
2013-03-25 11:34:00,50.0,8.0,30.14,ENE,58,5.0,7.0,18,0.00,,,0.00,weatherlink.com 1.10,2013-03-25 17:34:00,
2013-03-25 11:49:00,51.0,9.0,30.14,East,86,3.0,7.0,18,0.00,,,0.00,weatherlink.com 1.10,2013-03-25 17:49:00,
2013-03-25 12:04:00,53.0,9.0,30.13,SE,138,2.0,5.0,17,0.00,,,0.00,weatherlink.com 1.10,2013-03-25 18:04:00,
2013-03-25 12:19:00,52.6,7.0,30.13,ESE,117,5.0,10.0,16,0.00,,,0.00,weatherlink.com 1.10,2013-03-25 18:19:00,
2013-03-25 12:34:00,53.3,9.0,30.12,East,96,8.0,12.0,17,0.00,,,0.00,weatherlink.com 1.10,2013-03-25 18:34:00,
2013-03-25 12:49:00,54.6,8.0,30.12,ENE,77,9.0,9.0,15,0.00,,,0.00,weatherlink.com 1.10,2013-03-25 18:49:00,
2013-03-25 13:05:00,54.3,7.0,30.11,ENE,70,0.0,6.0,15,0.00,,,0.00,weatherlink.com 1.10,2013-03-25 19:05:00,
2013-03-25 13:20:00,55.3,8.0,30.09,ESE,111,1.0,8.0,15,0.00,,,0.00,weatherlink.com 1.10,2013-03-25 19:20:00,
2013-03-25 13:35:00,57.2,8.0,30.09,NNE,31,2.0,5.0,14,0.00,,,0.00,weatherlink.com 1.10,2013-03-25 19:35:00,
2013-03-25 13:50:00,57.6,8.0,30.08,ENE,67,5.0,8.0,14,0.00,,,0.00,weatherlink.com 1.10,2013-03-25 19:50:00,
2013-03-25 14:05:00,57.1,6.0,30.08,SSW,207,0.0,9.0,13,0.00,,,0.00,weatherlink.com 1.10,2013-03-25 20:05:00,
2013-03-25 14:20:00,58.9,8.0,30.07,SSE,148,8.0,10.0,13,0.00,,,0.00,weatherlink.com 1.10,2013-03-25 20:20:00,
2013-03-25 14:35:00,58.9,8.0,30.06,SE,134,3.0,11.0,13,0.00,,,0.00,weatherlink.com 1.10,2013-03-25 20:35:00,
2013-03-25 14:50:00,59.2,6.0,30.05,SE,142,2.0,10.0,12,0.00,,,0.00,weatherlink.com 1.10,2013-03-25 20:50:00,
2013-03-25 15:05:00,60.6,7.0,30.04,SSE,162,7.0,8.0,12,0.00,,,0.00,weatherlink.com 1.10,2013-03-25 21:05:00,
2013-03-25 15:20:00,60.0,7.0,30.04,SE,135,6.0,9.0,12,0.00,,,0.00,weatherlink.com 1.10,2013-03-25 21:20:00,
2013-03-25 15:35:00,59.8,7.0,30.03,SE,133,7.0,11.0,12,0.00,,,0.00,weatherlink.com 1.10,2013-03-25 21:35:00,
2013-03-25 15:50:00,61.2,8.0,30.02,South,172,5.0,9.0,12,0.00,,,0.00,weatherlink.com 1.10,2013-03-25 21:50:00,
2013-03-25 16:05:00,61.3,6.0,30.02,ENE,75,6.0,10.0,11,0.00,,,0.00,weatherlink.com 1.10,2013-03-25 22:05:00,
2013-03-25 16:21:00,60.2,7.0,30.01,SE,129,6.0,10.0,12,0.00,,,0.00,weatherlink.com 1.10,2013-03-25 22:21:00,
2013-03-25 16:36:00,60.9,6.0,30.01,East,91,7.0,8.0,11,0.00,,,0.00,weatherlink.com 1.10,2013-03-25 22:36:00,
2013-03-25 16:51:00,62.9,7.0,30.01,NE,51,1.0,6.0,11,0.00,,,0.00,weatherlink.com 1.10,2013-03-25 22:51:00,
2013-03-25 17:06:00,61.1,6.0,30.00,WNW,285,0.0,5.0,11,0.00,,,0.00,weatherlink.com 1.10,2013-03-25 23:06:00,
2013-03-25 17:21:00,62.8,7.0,30.00,North,11,5.0,5.0,11,0.00,,,0.00,weatherlink.com 1.10,2013-03-25 23:21:00,
2013-03-25 17:36:00,62.3,7.0,30.00,East,79,4.0,5.0,11,0.00,,,0.00,weatherlink.com 1.10,2013-03-25 23:36:00,
2013-03-25 17:51:00,61.5,6.0,30.00,East,94,2.0,6.0,11,0.00,,,0.00,weatherlink.com 1.10,2013-03-25 23:51:00,
2013-03-25 18:06:00,61.6,8.0,30.00,SE,125,4.0,6.0,12,0.00,,,0.00,weatherlink.com 1.10,2013-03-26 00:06:00,
2013-03-25 18:21:00,62.0,7.0,30.01,ENE,58,2.0,6.0,11,0.00,,,0.00,weatherlink.com 1.10,2013-03-26 00:21:00,
2013-03-25 18:36:00,61.2,6.0,30.01,ENE,61,2.0,7.0,11,0.00,,,0.00,weatherlink.com 1.10,2013-03-26 00:36:00,
2013-03-25 18:51:00,60.5,7.0,30.02,ESE,108,6.0,7.0,12,0.00,,,0.00,weatherlink.com 1.10,2013-03-26 00:51:00,
2013-03-25 19:06:00,59.3,6.0,30.02,ESE,123,4.0,8.0,12,0.00,,,0.00,weatherlink.com 1.10,2013-03-26 01:06:00,
2013-03-25 19:25:00,58.7,8.0,30.02,ESE,117,5.0,9.0,13,0.00,,,0.00,weatherlink.com 1.10,2013-03-26 01:25:00,
2013-03-25 19:36:00,58.3,7.0,30.02,ESE,111,5.0,7.0,13,0.00,,,0.00,weatherlink.com 1.10,2013-03-26 01:36:00,
2013-03-25 19:52:00,57.6,8.0,30.03,ESE,109,2.0,8.0,14,0.00,,,0.00,weatherlink.com 1.10,2013-03-26 01:52:00,
2013-03-25 20:07:00,56.9,8.0,30.04,East,85,1.0,7.0,14,0.00,,,0.00,weatherlink.com 1.10,2013-03-26 02:07:00,
2013-03-25 20:22:00,56.2,9.0,30.04,SE,136,5.0,11.0,15,0.00,,,0.00,weatherlink.com 1.10,2013-03-26 02:22:00,
2013-03-25 20:37:00,55.3,8.0,30.05,ESE,114,6.0,8.0,15,0.00,,,0.00,weatherlink.com 1.10,2013-03-26 02:37:00,
2013-03-25 20:52:00,54.3,9.0,30.05,ESE,123,2.0,6.0,16,0.00,,,0.00,weatherlink.com 1.10,2013-03-26 02:52:00,
2013-03-25 21:25:00,52.1,8.0,30.07,North,8,0.0,2.0,17,0.00,,,0.00,weatherlink.com 1.10,2013-03-26 03:25:00,
2013-03-25 21:37:00,51.6,9.0,30.09,NE,50,5.0,9.0,18,0.00,,,0.00,weatherlink.com 1.10,2013-03-26 03:37:00,
2013-03-25 21:52:00,51.3,9.0,30.09,SSE,160,1.0,9.0,18,0.00,,,0.00,weatherlink.com 1.10,2013-03-26 03:52:00,
2013-03-25 22:07:00,50.8,10.0,30.10,East,92,1.0,5.0,19,0.00,,,0.00,weatherlink.com 1.10,2013-03-26 04:07:00,
2013-03-25 22:22:00,50.4,9.0,30.11,SSE,155,2.0,7.0,19,0.00,,,0.00,weatherlink.com 1.10,2013-03-26 04:22:00,
2013-03-25 22:37:00,49.9,10.0,30.12,SE,139,2.0,7.0,20,0.00,,,0.00,weatherlink.com 1.10,2013-03-26 04:37:00,
2013-03-25 22:52:00,49.4,11.0,30.12,SSE,151,4.0,8.0,21,0.00,,,0.00,weatherlink.com 1.10,2013-03-26 04:52:00,
2013-03-25 23:08:00,48.9,10.0,30.13,ESE,120,4.0,9.0,21,0.00,,,0.00,weatherlink.com 1.10,2013-03-26 05:08:00,
2013-03-25 23:38:00,47.9,11.0,30.13,South,177,3.0,3.0,22,0.00,,,0.00,weatherlink.com 1.10,2013-03-26 05:38:00,
2013-03-25 23:53:00,47.2,11.0,30.13,South,182,3.0,5.0,23,0.00,,,0.00,weatherlink.com 1.10,2013-03-26 05:53:00,